EW7070 Weather Reports


time (UTC)temp
C
wind
direction
speed
KPH
gust
KPH
rain 1hr
cm
rain 24hr
cm
rain mn
cm
humidity
%
barometer
mb
20260831170039 18 303 3.2 4.8 0.03 0.13 0.03 94 1009.2
20260831165750 18 270 3.2 4.8 0.03 0.13 0.03 93 1009.4
20260831165015 18 298 3.2 6.4 0.03 0.13 0.03 92 1009.5
20260831164745 18 353 1.6 6.4 0.03 0.13 0.03 92 1009.4
20260831163953 18 286 0.0 3.2 0.00 0.10 0.00 92 1009.5
20260831163450 18 249 1.6 4.8 0.00 0.10 0.00 92 1009.6
20260831162947 18 262 3.2 4.8 0.00 0.10 0.00 92 1009.6
20260831162447 18 303 1.6 4.8 0.00 0.10 0.00 92 1009.4
20260831161947 18 293 0.0 1.6 0.00 0.10 0.00 91 1009.5
20260831161942 18 293 0.0 3.2 0.00 0.10 0.00 90 1009.6
20260831161152 18 293 0.0 3.2 0.00 0.10 0.00 90 1009.5
20260831160422 18 218 0.0 0.0 0.00 0.10 0.00 90 1009.3
20260831155922 18 218 0.0 3.2 0.00 0.10 0.00 90 1009.4
20260831155353 18 223 0.0 3.2 0.00 0.10 0.00 90 1009.5
20260831154828 18 249 0.0 0.0 0.00 0.10 0.00 90 1009.3
20260831154320 18 249 0.0 3.2 0.00 0.10 0.00 90 1009.4
20260831153818 18 249 0.0 3.2 0.00 0.10 0.00 90 1009.5
20260831153319 18 249 1.6 3.2 0.00 0.10 0.00 90 1009.6
20260831153311 18 249 1.6 4.8 0.00 0.10 0.00 89 1009.5
20260831152537 18 134 3.2 9.7 0.00 0.10 0.00 89 1009.3
20260831152027 18 197 4.8 11.3 0.00 0.10 0.00 90 1009.3
20260831151232 18 93 3.2 9.7 0.00 0.10 0.00 90 1008.9
20260831150728 18 162 3.2 6.4 0.00 0.10 0.00 91 1008.8
20260831150210 18 100 4.8 8.0 0.00 0.10 0.00 90 1009.1
20260831145708 18 110 3.2 8.0 0.00 0.10 0.00 91 1009.5
20260831145438 18 109 3.2 6.4 0.00 0.10 0.00 90 1009.4
20260831144937 18 120 3.2 4.8 0.00 0.10 0.00 90 1009.6
20260831144139 18 137 3.2 8.0 0.00 0.10 0.00 90 1009.9
20260831144133 18 147 3.2 8.0 0.00 0.10 0.00 89 1010.2
20260831143113 18 132 3.2 9.7 0.00 0.10 0.00 90 1010.5
20260831142611 18 170 3.2 9.7 0.00 0.10 0.00 90 1010.5
20260831142109 18 164 4.8 16.1 0.00 0.10 0.00 89 1010.6
20260831141608 18 151 4.8 16.1 0.00 0.10 0.00 90 1010.3
20260831141108 18 133 6.4 12.9 0.00 0.10 0.00 90 1010.0
20260831140602 18 101 6.4 16.1 0.00 0.10 0.00 89 1009.8
20260831140057 18 114 6.4 16.1 0.00 0.10 0.00 89 1010.1
20260831135554 18 91 3.2 12.9 0.00 0.10 0.00 90 1010.2
20260831135049 18 139 1.6 8.0 0.00 0.10 0.00 89 1010.6
20260831135042 18 160 3.2 8.0 0.00 0.10 0.00 90 1010.3
20260831134013 18 162 1.6 6.4 0.00 0.10 0.00 90 1010.9
20260831133447 18 177 1.6 6.4 0.00 0.10 0.00 90 1011.0
20260831133148 18 131 1.6 6.4 0.00 0.10 0.00 90 1010.8
20260831132426 18 182 1.6 6.4 0.00 0.10 0.00 91 1010.6
20260831132417 18 119 1.6 6.4 0.00 0.10 0.00 91 1010.7
20260831131415 18 93 1.6 6.4 0.00 0.10 0.00 91 1010.6
20260831130914 18 113 1.6 6.4 0.00 0.10 0.00 91 1010.4
20260831130352 18 111 1.6 6.4 0.00 0.10 0.00 91 1010.5
20260831125835 18 121 3.2 6.4 0.00 0.10 0.00 91 1010.6
20260831125337 18 138 1.6 8.0 0.00 0.10 0.00 92 1010.9
20260831124809 17 106 1.6 8.0 0.00 0.10 0.00 92 1011.1
20260831124259 17 118 0.0 0.0 0.00 0.10 0.00 93 1011.2
20260831123756 17 147 0.0 0.0 0.00 0.10 0.00 94 1011.4
20260831123524 17 141 0.0 0.0 0.00 0.10 0.00 95 1011.1
20260831122752 17 158 0.0 0.0 0.00 0.10 0.00 95 1010.9
20260831122223 17 120 0.0 0.0 0.00 0.10 0.00 96 1010.8
20260831121925 17 139 0.0 0.0 0.00 0.10 0.00 97 1010.9
20260831121156 16 160 0.0 0.0 0.00 0.10 0.00 98 1010.9
20260831121149 17 177 0.0 0.0 0.00 0.10 0.00 97 1011.0
20260831120415 16 140 0.0 0.0 0.00 0.10 0.00 98 1010.9
20260831115644 16 143 0.0 0.0 0.00 0.10 0.00 98 1011.1
20260831115143 16 120 0.0 0.0 0.00 0.10 0.00 98 1011.3
20260831114644 16 120 0.0 0.0 0.00 0.10 0.00 98 1011.1
20260831114143 16 120 0.0 0.0 0.00 0.10 0.00 99 1010.9
20260831113641 16 120 0.0 0.0 0.00 0.10 0.00 98 1011.1
20260831113127 16 120 0.0 0.0 0.00 0.10 0.00 98 1011.4
20260831112629 16 120 0.0 0.0 0.00 0.10 0.00 99 1011.2
20260831112332 16 120 0.0 0.0 0.00 0.10 0.00 99 1010.9
20260831111600 16 120 0.0 0.0 0.00 0.10 0.00 98 1011.1
20260831111032 16 120 0.0 0.0 0.00 0.10 0.00 99 1011.2
20260831110504 16 114 0.0 0.0 0.00 0.10 0.00 99 1010.9
20260831105939 16 144 0.0 0.0 0.00 0.10 0.00 99 1011.0
20260831105440 15 144 0.0 0.0 0.00 0.10 0.00 99 1011.1
20260831104941 15 143 0.0 1.6 0.00 0.10 0.00 99 1010.9
20260831104713 15 244 0.0 0.0 0.00 0.10 0.00 99 1011.2
20260831103914 15 218 0.0 1.6 0.00 0.10 0.00 99 1011.1
20260831103347 15 218 0.0 1.6 0.00 0.10 0.00 99 1011.0
20260831103342 15 218 0.0 3.2 0.00 0.10 0.00 99 1011.0
20260831102329 15 143 0.0 3.2 0.00 0.10 0.00 99 1010.9
20260831102321 15 214 0.0 3.2 0.00 0.10 0.00 99 1010.9
20260831101548 15 143 0.0 3.2 0.00 0.10 0.00 99 1010.8
20260831101049 15 143 0.0 1.6 0.00 0.10 0.00 99 1010.8
20260831100317 15 32 0.0 1.6 0.00 0.10 0.00 99 1010.8
20260831100051 15 32 0.0 1.6 0.00 0.10 0.00 99 1010.9
20260831095546 15 32 0.0 1.6 0.00 0.10 0.00 99 1011.1
20260831094813 15 18 0.0 0.0 0.00 0.10 0.00 99 1010.9
20260831094259 15 6 0.0 1.6 0.00 0.10 0.00 99 1011.0
20260831093800 15 6 0.0 1.6 0.00 0.10 0.00 98 1010.8
20260831093258 15 103 0.0 1.6 0.00 0.10 0.00 98 1010.4
20260831092757 15 208 0.0 3.2 0.00 0.10 0.00 99 1010.1
20260831092519 15 208 0.0 3.2 0.00 0.10 0.00 99 1009.9
20260831091958 15 172 0.0 1.6 0.00 0.10 0.00 98 1010.1
20260831091719 15 126 0.0 1.6 0.00 0.10 0.00 98 1010.3
20260831090715 15 126 0.0 3.2 0.00 0.10 0.00 98 1009.7
20260831090214 15 119 0.0 3.2 0.00 0.10 0.00 99 1009.5
20260831085929 15 125 0.0 1.6 0.00 0.10 0.00 99 1009.7
20260831085142 15 177 0.0 0.0 0.00 0.10 0.00 99 1009.6
20260831084645 15 177 0.0 0.0 0.00 0.10 0.00 99 1009.9
20260831084117 15 177 0.0 0.0 0.00 0.10 0.00 99 1009.7
20260831083820 15 233 0.0 0.0 0.00 0.10 0.00 99 1010.0
20260831083049 15 233 0.0 0.0 0.00 0.10 0.00 99 1010.2
20260831082528 15 233 0.0 0.0 0.00 0.10 0.00 99 1010.1
20260831082008 15 233 0.0 0.0 0.00 0.10 0.00 98 1010.2
20260831081736 15 233 0.0 0.0 0.00 0.10 0.00 98 1010.2
20260831081006 15 233 0.0 0.0 0.00 0.10 0.00 98 1010.1
20260831080505 15 233 0.0 1.6 0.00 0.10 0.00 98 1010.2
20260831080219 15 233 0.0 0.0 0.00 0.10 0.00 98 1010.4
20260831075446 14 233 0.0 0.0 0.00 0.10 0.00 98 1010.5
20260831075214 14 233 0.0 0.0 0.00 0.10 0.00 98 1010.6
20260831074713 14 233 0.0 0.0 0.00 0.10 0.00 98 1010.7
20260831073942 14 233 0.0 0.0 0.00 0.10 0.00 98 1011.0
20260831073440 14 233 0.0 0.0 0.00 0.10 0.00 98 1010.7
20260831073200 14 233 0.0 0.0 0.00 0.10 0.00 98 1010.9
20260831072432 14 233 0.0 0.0 0.00 0.10 0.00 98 1011.1
20260831071911 14 233 0.0 0.0 0.00 0.10 0.00 98 1011.1
20260831071414 13 233 0.0 0.0 0.00 0.10 0.00 98 1011.0
20260831071127 13 233 0.0 0.0 0.00 0.10 0.00 98 1011.2
20260831070351 13 233 0.0 0.0 0.00 0.10 0.00 98 1011.4
20260831065850 13 233 0.0 0.0 0.00 0.10 0.00 97 1011.6
20260831065342 13 233 0.0 1.6 0.00 0.10 0.00 97 1011.5
20260831064843 13 233 0.0 1.6 0.00 0.10 0.00 97 1011.6
20260831064314 13 233 0.0 1.6 0.00 0.10 0.00 97 1011.5
20260831063743 13 141 0.0 1.6 0.00 0.10 0.00 97 1011.4
20260831063243 14 246 0.0 3.2 0.00 0.10 0.00 97 1011.5
20260831062741 14 246 1.6 3.2 0.00 0.10 0.00 97 1011.6
20260831062242 14 247 1.6 3.2 0.00 0.10 0.00 97 1011.7
20260831061733 14 169 0.0 0.0 0.00 0.10 0.00 97 1011.6
20260831061456 14 169 0.0 0.0 0.00 0.10 0.00 97 1011.5
20260831060722 14 169 0.0 4.8 0.00 0.10 0.00 98 1011.6
20260831060222 14 169 0.0 4.8 0.00 0.10 0.00 98 1011.6
20260831055950 15 169 0.0 4.8 0.00 0.10 0.00 97 1011.7
20260831055221 15 169 1.6 4.8 0.00 0.10 0.00 98 1011.8
20260831054718 15 149 1.6 3.2 0.00 0.10 0.00 98 1011.9
20260831054213 15 145 0.0 4.8 0.00 0.10 0.00 98 1012.3
20260831053711 15 299 0.0 4.8 0.00 0.10 0.00 98 1012.5
20260831053157 15 280 0.0 0.0 0.00 0.10 0.00 98 1012.9
20260831052654 14 280 0.0 0.0 0.00 0.10 0.00 97 1012.7
20260831052145 14 280 0.0 0.0 0.00 0.10 0.00 97 1012.2
20260831051645 14 280 0.0 1.6 0.00 0.10 0.00 97 1012.1
20260831051143 14 280 0.0 1.6 0.00 0.10 0.00 97 1012.0
20260831050637 14 280 0.0 1.6 0.00 0.10 0.00 96 1011.9
20260831050137 14 280 0.0 3.2 0.00 0.10 0.00 95 1011.6
20260831045638 14 280 0.0 3.2 0.00 0.10 0.00 95 1011.8
20260831045631 14 265 0.0 0.0 0.00 0.10 0.00 95 1011.8
20260831044602 14 182 0.0 0.0 0.00 0.10 0.00 95 1011.8
20260831044320 15 182 0.0 0.0 0.00 0.10 0.00 95 1012.0
20260831043544 15 182 0.0 0.0 0.00 0.10 0.00 95 1012.3
20260831043044 15 271 0.0 0.0 0.00 0.10 0.00 95 1012.5
20260831042538 15 271 0.0 0.0 0.00 0.10 0.00 95 1012.8
20260831042037 15 271 0.0 0.0 0.00 0.10 0.00 95 1013.0
20260831041539 15 271 0.0 0.0 0.00 0.10 0.00 95 1013.0
20260831041031 15 271 0.0 0.0 0.00 0.10 0.00 95 1012.9
20260831040531 15 271 0.0 3.2 0.00 0.10 0.00 95 1013.1
20260831040027 15 271 1.6 3.2 0.00 0.10 0.00 95 1012.9
20260831035526 15 289 1.6 3.2 0.00 0.10 0.00 95 1012.8
20260831035025 15 323 1.6 3.2 0.00 0.10 0.00 95 1012.3
20260831034524 16 323 1.6 6.4 0.00 0.10 0.00 95 1012.1
20260831034226 16 341 3.2 6.4 0.00 0.10 0.00 95 1012.2
20260831033455 16 12 1.6 6.4 0.00 0.10 0.00 95 1012.4
20260831032953 16 3 0.0 3.2 0.00 0.10 0.00 95 1012.8
20260831032451 16 310 0.0 3.2 0.00 0.10 0.00 94 1013.1
20260831031948 16 310 0.0 3.2 0.00 0.10 0.00 94 1012.9
20260831031443 16 310 0.0 3.2 0.00 0.10 0.00 94 1013.2
20260831030947 16 249 1.6 4.8 0.00 0.10 0.00 94 1013.2
20260831030421 16 249 3.2 6.4 0.00 0.10 0.00 94 1013.0
20260831025903 16 254 3.2 6.4 0.00 0.10 0.10 94 1013.3
20260831025402 16 235 1.6 4.8 0.00 0.10 0.10 94 1012.9
20260831024842 16 133 1.6 6.4 0.00 0.10 0.10 94 1012.8
20260831024341 16 172 3.2 6.4 0.00 0.10 0.10 94 1012.8
20260831023839 16 126 3.2 6.4 0.00 0.10 0.10 94 1012.8
20260831023608 16 124 3.2 11.3 0.00 0.10 0.10 94 1012.9
20260831022836 16 81 3.2 11.3 0.00 0.10 0.10 94 1013.6
20260831022608 17 110 4.8 11.3 0.00 0.10 0.10 94 1013.7
20260831021837 16 101 4.8 11.3 0.00 0.10 0.10 94 1013.3
20260831021336 17 89 3.2 9.7 0.00 0.10 0.10 94 1013.2
20260831021109 17 168 3.2 8.0 0.00 0.10 0.10 94 1013.2
20260831020318 17 160 4.8 9.7 0.00 0.10 0.10 94 1013.4
20260831015816 17 116 3.2 9.7 0.00 0.10 0.10 94 1013.1
20260831015305 17 148 1.6 6.4 0.00 0.10 0.10 94 1013.3
20260831014804 17 182 3.2 9.7 0.00 0.10 0.10 94 1013.3
20260831014236 17 102 4.8 9.7 0.00 0.10 0.10 94 1013.2
20260831013732 17 112 3.2 9.7 0.00 0.10 0.10 94 1013.7
20260831013223 17 122 8.0 17.7 0.00 0.10 0.10 94 1013.7
20260831012929 17 143 11.3 17.7 0.00 0.10 0.10 94 1013.6
20260831012145 17 111 9.7 16.1 0.00 0.10 0.10 95 1013.7
20260831011648 17 99 9.7 17.7 0.00 0.10 0.10 95 1013.7
20260831011131 17 148 9.7 20.9 0.00 0.10 0.10 95 1013.8
20260831010632 17 102 9.7 20.9 0.00 0.10 0.10 95 1013.9
20260831010131 17 108 9.7 20.9 0.00 0.10 0.10 95 1013.9
20260831005629 17 116 8.0 20.9 0.00 0.10 0.10 95 1013.7
20260831005127 17 115 6.4 16.1 0.00 0.10 0.10 95 1013.8
20260831004616 17 149 4.8 16.1 0.03 0.10 0.10 95 1014.0
20260831004116 17 117 3.2 12.9 0.08 0.10 0.10 95 1014.3
20260831003548 17 139 3.2 12.9 0.08 0.10 0.10 95 1014.9
20260831003045 17 123 4.8 12.9 0.08 0.10 0.10 95 1014.5
20260831002537 17 146 4.8 12.9 0.08 0.10 0.10 94 1014.4
20260831002306 17 108 8.0 16.1 0.08 0.10 0.10 94 1014.9
20260831001510 17 114 8.0 16.1 0.08 0.10 0.10 94 1014.5
20260831001006 17 110 3.2 12.9 0.08 0.10 0.10 93 1014.3
20260831000504 17 148 1.6 16.1 0.08 0.10 0.10 93 1015.0
20260830235949 17 103 3.2 16.1 0.08 0.10 0.10 93 1015.0
20260830235437 17 132 3.2 16.1 0.08 0.10 0.10 92 1014.9
20260830234936 17 107 4.8 16.1 0.08 0.10 0.10 92 1015.1
20260830234410 17 312 4.8 14.5 0.05 0.08 0.08 92 1015.5
20260830233844 18 141 6.4 19.3 0.00 0.03 0.03 91 1015.4
20260830233341 18 196 8.0 24.1 0.03 0.03 0.03 91 1014.5
20260830232843 17 287 8.0 24.1 0.03 0.03 0.03 92 1015.9
20260830232339 17 255 6.4 16.1 0.03 0.03 0.03 92 1014.5
20260830231843 17 91 6.4 16.1 0.03 0.03 0.03 92 1011.8
20260830231338 17 81 6.4 12.9 0.03 0.03 0.03 92 1011.7
20260830230835 17 115 6.4 16.1 0.03 0.03 0.03 92 1012.1
20260830230307 17 109 6.4 16.1 0.03 0.03 0.03 92 1011.7
20260830225734 18 122 6.4 12.9 0.03 0.03 0.03 92 1011.1
20260830225206 18 108 4.8 12.9 0.03 0.03 0.03 92 1011.5
20260830224915 18 208 4.8 14.5 0.03 0.03 0.03 91 1011.6
20260830224404 18 135 4.8 14.5 0.03 0.03 0.03 91 1011.6
20260830224117 18 103 3.2 11.3 0.00 0.00 0.00 91 1011.4
20260830223050 18 131 3.2 8.0 0.00 0.00 0.00 91 1011.7
20260830222518 18 126 3.2 4.8 0.00 0.00 0.00 90 1012.0
20260830222224 18 83 3.2 12.9 0.00 0.00 0.00 90 1012.2
20260830221450 18 125 4.8 8.0 0.00 0.00 0.00 90 1012.3
20260830221213 18 187 4.8 11.3 0.00 0.00 0.00 89 1012.4
20260830220416 18 95 1.6 6.4 0.00 0.00 0.00 89 1012.5
20260830215917 18 340 1.6 6.4 0.00 0.00 0.00 89 1012.7
20260830215407 18 339 3.2 12.9 0.00 0.00 0.00 89 1012.4
20260830214907 18 130 4.8 11.3 0.00 0.00 0.00 89 1011.8
20260830214405 18 168 4.8 17.7 0.00 0.00 0.00 89 1011.3
20260830213859 18 127 8.0 17.7 0.00 0.00 0.00 89 1011.3
20260830213350 18 165 6.4 17.7 0.00 0.00 0.00 89 1010.8
20260830213119 18 103 4.8 17.7 0.00 0.00 0.00 89 1010.9
20260830212357 18 121 4.8 12.9 0.00 0.00 0.00 89 1011.0
20260830211843 18 122 6.4 12.9 0.00 0.00 0.00 88 1011.4
20260830211343 18 167 4.8 12.9 0.00 0.00 0.00 88 1011.6
20260830210844 19 149 6.4 16.1 0.00 0.00 0.00 88 1011.3
20260830210320 19 122 6.4 14.5 0.00 0.00 0.00 88 1011.6
20260830205816 19 120 4.8 11.3 0.00 0.00 0.00 88 1012.1
20260830205315 19 164 3.2 8.0 0.00 0.00 0.00 88 1012.2
20260830204815 19 152 3.2 6.4 0.00 0.00 0.00 88 1012.5
20260830204303 19 112 1.6 4.8 0.00 0.00 0.00 87 1013.2
20260830203803 19 243 3.2 12.9 0.00 0.00 0.00 87 1013.0
20260830203236 19 156 4.8 12.9 0.00 0.00 0.00 88 1011.6
20260830202728 19 108 4.8 14.5 0.00 0.00 0.00 87 1010.9
20260830202204 19 118 4.8 12.9 0.00 0.00 0.00 88 1011.0
20260830201636 19 136 4.8 14.5 0.00 0.00 0.00 88 1011.6
20260830201126 19 119 4.8 14.5 0.00 0.00 0.00 87 1011.7
20260830200603 19 135 4.8 14.5 0.00 0.00 0.00 87 1011.5
20260830200040 19 106 4.8 16.1 0.00 0.00 0.00 87 1011.4
20260830195523 19 129 6.4 16.1 0.00 0.00 0.00 87 1011.3
20260830195026 20 108 6.4 16.1 0.00 0.00 0.00 87 1011.4
20260830194456 20 147 6.4 12.9 0.00 0.00 0.00 87 1011.4
20260830194431 20 118 6.4 12.9 0.00 0.00 0.00 87 1011.4
20260830193423 20 103 6.4 12.9 0.00 0.00 0.00 87 1011.6
20260830193124 20 137 4.8 12.9 0.00 0.00 0.00 87 1011.5
20260830192330 20 137 3.2 9.7 0.00 0.00 0.00 87 1011.6
20260830191818 20 126 3.2 12.9 0.00 0.00 0.00 87 1011.6
20260830191249 20 127 4.8 12.9 0.00 0.00 0.00 87 1011.6
20260830190955 20 119 3.2 11.3 0.00 0.00 0.00 86 1011.5
20260830190159 20 126 3.2 11.3 0.00 0.00 0.00 87 1011.5
20260830185655 20 126 3.2 9.7 0.00 0.00 0.00 87 1011.5
20260830185153 20 177 3.2 11.3 0.00 0.00 0.00 87 1011.7
20260830184652 20 182 4.8 11.3 0.00 0.00 0.00 87 1011.7
20260830184153 20 124 4.8 11.3 0.00 0.00 0.00 87 1011.5
20260830183626 20 105 3.2 11.3 0.00 0.00 0.00 87 1011.7
20260830183124 20 115 3.2 9.7 0.00 0.00 0.00 87 1011.8
20260830182556 20 111 4.8 14.5 0.00 0.00 0.00 86 1012.1
20260830182030 20 114 6.4 14.5 0.00 0.00 0.00 85 1012.0
20260830181505 20 74 4.8 12.9 0.00 0.00 0.00 86 1012.1
20260830180957 20 153 3.2 11.3 0.00 0.00 0.00 86 1012.9
20260830180456 20 116 4.8 9.7 0.00 0.00 0.00 86 1012.8
20260830175953 20 112 4.8 9.7 0.00 0.00 0.00 86 1012.2
20260830175446 20 132 3.2 9.7 0.00 0.00 0.00 86 1012.0
20260830174933 20 149 3.2 9.7 0.00 0.03 0.00 86 1011.9
20260830174432 20 166 1.6 8.0 0.00 0.03 0.00 86 1011.9
20260830173931 20 133 3.2 9.7 0.00 0.05 0.00 87 1012.2
20260830173432 20 104 4.8 14.5 0.00 0.08 0.00 87 1012.0
20260830172905 20 103 4.8 14.5 0.00 0.10 0.00 86 1011.9
20260830172401 20 120 3.2 6.4 0.00 0.13 0.00 87 1012.3
20260830172356 20 116 3.2 6.4 0.00 0.13 0.00 87 1012.7
20260830171351 20 131 1.6 8.0 0.00 0.15 0.00 86 1013.0
20260830170820 20 166 1.6 6.4 0.00 0.15 0.00 86 1012.9
20260830170527 20 163 1.6 4.8 0.00 0.18 0.00 86 1013.0